Weather in Priirtyshye

Russia / Omsk Oblast     54°31′52″N   74°05′52″E
temp.,
°C
wind,
m/s
gust,
m/s
humid.,
%
clouds,
%
prec.,
mm/h
press.,
hPa
HPBL,
m
16 may, sun
sun1600:00+21wnw344992 0.4 101784
03:00+18w410550 0.4 1017167
06:00+16wsw410625 0.4 1016182
09:00+23w46425 0.0 1015367
12:00+29wnw61029100 0.0 10141698
15:00+29nw81127100 0.0 10142382
18:00+28nnw61032100 0.0 10142324
21:00+21n386026 0.6 1015165
17 may, mon
mon1700:00+18n267141 1.3 1016123
03:00+17ese227217 0.0 101714
06:00+17sw227368 0.0 101814
09:00+23wsw455115 0.3 1018479
12:00+29wsw683336 0.3 10151354
15:00+32nw792011 0.0 10144013
18:00+31nw79225 0.0 10143556
21:00+25w33350 0.0 101232
18 may, tue
tue1800:00+22w4103632 0.0 1012143
03:00+21w4114256 0.0 1011168
06:00+19wnw410515 0.0 1011201
09:00+24nw59405 0.0 1011703
12:00+27nw6103044 0.0 10102071
15:00+28nw5928100 0.0 10092785
18:00+27nnw91034100 0.0 10062257
21:00+17nnw2472100 4.9 1007126
19 may, wed
wed1900:00+16n487868 4.9 1009438
03:00+14nne6987100 0.0 1010658
06:00+10nne71192100 8.4 1013645
09:00+10nne71175100 5.6 1016874
12:00+15ne79465 5.6 10181603
15:00+17nne78365 0.0 10182005
18:00+16n78359 0.0 10192099
21:00+13n495212 0.0 1020259
20 may, thu
thu2000:00+11n410644 0.0 1022249
03:00+8nne376386 0.0 1023154
06:00+8nne256156 0.0 1024158
09:00+12n344187 0.0 1024747
12:00+15nw3536100 0.0 10241416
15:00+17nw463770 0.0 10221609
18:00+19wnw473798 0.0 10201750
21:00+16w345483 0.0 101954